OCN5HD HEGN-EDDF

Flight info

Callsign OCN5HD
Flight time N/A
Altitude 32000
Route HGD V608 NABED T55 KUNKI P751 DASUM/N0467F340 P751 METRU DCT PLH UL604 TRL DCT ELVAS DCT YNN UL604 DIMIS DCT PETAK DCT GLOMY DCT ELTIB/N0458F360 DCT TUPUS DCT GORPA DCT BERTA DCT INGID DCT INROM DCT SIMBA DCT AKINI T161 DEBHI SPESA5C
Aircraft A320/M-SDE3FGHIRWY/LB1

Departure

Time 2026-05-01 14:15
Airport Hurghada International Airport (HEGN)

Arrival

Time N/A
Airport Frankfurt Main Airport (EDDF)
Time Latitude Longitude Altitude Speed Heading
2026-05-01 13:35 27.17852 33.80646 51 ft 0 kts 75°
2026-05-01 14:00 27.17851 33.80642 51 ft 3 kts 75°
2026-05-01 14:00 27.17843 33.80613 55 ft 4 kts 71°
2026-05-01 14:00 27.17834 33.80585 52 ft 4 kts 66°
2026-05-01 14:01 27.17821 33.80558 50 ft 4 kts 52°
2026-05-01 14:01 27.17803 33.80540 53 ft 4 kts
2026-05-01 14:01 27.17793 33.80541 54 ft 1 kts 345°
2026-05-01 14:01 27.17792 33.80541 54 ft 0 kts 345°
2026-05-01 14:03 27.17796 33.80540 54 ft 2 kts 345°
2026-05-01 14:04 27.17822 33.80529 50 ft 7 kts 332°
2026-05-01 14:04 27.17840 33.80456 58 ft 14 kts 259°
2026-05-01 14:04 27.17808 33.80327 53 ft 19 kts 236°
2026-05-01 14:04 27.17726 33.80312 55 ft 19 kts 169°
2026-05-01 14:05 27.17542 33.80364 51 ft 23 kts 165°
2026-05-01 14:05 27.17431 33.80340 51 ft 16 kts 246°
2026-05-01 14:05 27.17400 33.80233 49 ft 13 kts 253°
2026-05-01 14:05 27.17381 33.80154 54 ft 8 kts 254°
2026-05-01 14:06 27.17368 33.80103 53 ft 6 kts 255°
2026-05-01 14:06 27.17353 33.80032 50 ft 15 kts 256°
2026-05-01 14:06 27.17320 33.79880 61 ft 23 kts 256°
2026-05-01 14:06 27.17281 33.79708 87 ft 22 kts 255°
2026-05-01 14:07 27.17240 33.79553 101 ft 15 kts 254°
2026-05-01 14:07 27.17177 33.79509 103 ft 9 kts 175°
2026-05-01 14:07 27.17120 33.79524 104 ft 10 kts 165°
2026-05-01 14:08 27.16928 33.79581 107 ft 15 kts 165°
2026-05-01 14:08 27.16830 33.79610 106 ft 14 kts 165°
2026-05-01 14:08 27.16740 33.79636 104 ft 12 kts 165°
2026-05-01 14:08 27.16668 33.79658 107 ft 9 kts 165°
2026-05-01 14:09 27.16611 33.79674 108 ft 9 kts 165°
2026-05-01 14:09 27.16518 33.79702 108 ft 18 kts 165°
2026-05-01 14:09 27.16387 33.79741 111 ft 18 kts 165°
2026-05-01 14:09 27.16281 33.79771 115 ft 13 kts 165°
2026-05-01 14:10 27.16197 33.79797 115 ft 13 kts 165°
2026-05-01 14:10 27.16103 33.79825 115 ft 13 kts 165°
2026-05-01 14:10 27.16026 33.79848 115 ft 10 kts 165°
2026-05-01 14:10 27.15966 33.79855 118 ft 9 kts 192°
2026-05-01 14:11 27.15936 33.79821 118 ft 4 kts 245°
2026-05-01 14:11 27.15933 33.79812 117 ft 0 kts 248°
2026-05-01 14:12 27.15932 33.79808 118 ft 3 kts 249°
2026-05-01 14:13 27.15915 33.79750 118 ft 13 kts 257°
2026-05-01 14:13 27.15972 33.79666 118 ft 7 kts 343°
2026-05-01 14:13 27.15973 33.79665 118 ft 0 kts 343°
2026-05-01 14:14 27.15981 33.79662 116 ft 7 kts 343°
2026-05-01 14:14 27.16262 33.79579 113 ft 75 kts 345°
2026-05-01 14:14 27.16953 33.79377 109 ft 128 kts 345°
2026-05-01 14:14 27.17965 33.79084 139 ft 167 kts 344°
2026-05-01 14:15 27.19121 33.78795 657 ft 172 kts 349°
2026-05-01 14:15 27.20290 33.78494 1294 ft 173 kts 346°
2026-05-01 14:15 27.21493 33.78176 1577 ft 186 kts 347°
2026-05-01 14:15 27.22812 33.77827 1701 ft 203 kts 348°
2026-05-01 14:16 27.24239 33.77450 1908 ft 221 kts 347°
2026-05-01 14:16 27.25762 33.77047 2389 ft 227 kts 346°
2026-05-01 14:16 27.27314 33.76633 2968 ft 230 kts 344°
2026-05-01 14:16 27.28858 33.76220 3512 ft 237 kts 344°
2026-05-01 14:17 27.30481 33.75649 3884 ft 251 kts 329°
2026-05-01 14:17 27.31776 33.74369 4484 ft 252 kts 302°
2026-05-01 14:17 27.32387 33.72531 5169 ft 254 kts 276°
2026-05-01 14:17 27.32161 33.70548 5828 ft 261 kts 256°
2026-05-01 14:18 27.31622 33.68594 6497 ft 263 kts 256°
2026-05-01 14:18 27.31072 33.66627 7127 ft 265 kts 255°
2026-05-01 14:18 27.30516 33.64644 7777 ft 267 kts 256°
2026-05-01 14:18 27.30147 33.63324 8214 ft 268 kts 255°
2026-05-01 14:19 27.29393 33.60626 9027 ft 273 kts 255°
2026-05-01 14:19 27.28822 33.58582 9684 ft 275 kts 255°
2026-05-01 14:19 27.28249 33.56517 10274 ft 280 kts 256°
2026-05-01 14:19 27.27653 33.54345 10417 ft 301 kts 256°
2026-05-01 14:20 27.27016 33.52020 10540 ft 322 kts 255°
2026-05-01 14:20 27.25624 33.46981 10781 ft 357 kts 255°
2026-05-01 14:20 27.24864 33.44258 10917 ft 372 kts 255°
2026-05-01 14:21 27.24078 33.41452 11276 ft 379 kts 255°
2026-05-01 14:21 27.23275 33.38585 11798 ft 381 kts 255°
2026-05-01 14:21 27.22493 33.35778 12333 ft 382 kts 256°
2026-05-01 14:22 27.21995 33.29876 13328 ft 382 kts 276°
2026-05-01 14:22 27.22254 33.26905 13842 ft 382 kts 276°
2026-05-01 14:22 27.22504 33.23933 14286 ft 384 kts 276°
2026-05-01 14:22 27.22751 33.20940 14664 ft 386 kts 276°
2026-05-01 14:23 27.23155 33.17963 15027 ft 388 kts 286°
2026-05-01 14:23 27.24190 33.15150 15382 ft 391 kts 294°
2026-05-01 14:23 27.25357 33.12369 15733 ft 395 kts 294°
2026-05-01 14:23 27.26540 33.09574 16124 ft 397 kts 294°
2026-05-01 14:24 27.27736 33.06765 16514 ft 400 kts 294°
2026-05-01 14:24 27.28943 33.03939 16895 ft 402 kts 294°
2026-05-01 14:24 27.30155 33.01094 17250 ft 405 kts 294°
2026-05-01 14:24 27.31369 32.98233 17629 ft 407 kts 294°
2026-05-01 14:25 27.32589 32.95347 17997 ft 410 kts 294°
2026-05-01 14:25 27.33812 32.92444 18327 ft 412 kts 294°
2026-05-01 14:25 27.35039 32.89521 18619 ft 415 kts 294°
2026-05-01 14:25 27.36276 32.86579 18914 ft 417 kts 294°
2026-05-01 14:26 27.37521 32.83624 19195 ft 419 kts 294°
2026-05-01 14:26 27.40029 32.77671 19807 ft 423 kts 294°
2026-05-01 14:26 27.41289 32.74674 20098 ft 425 kts 294°
2026-05-01 14:27 27.42554 32.71660 20378 ft 426 kts 294°
2026-05-01 14:27 27.43824 32.68638 20650 ft 428 kts 294°
2026-05-01 14:27 27.45101 32.65602 20920 ft 430 kts 294°
2026-05-01 14:28 27.47668 32.59490 21462 ft 433 kts 294°
2026-05-01 14:28 27.48955 32.56414 21722 ft 435 kts 294°
2026-05-01 14:28 27.50245 32.53321 21974 ft 437 kts 294°
2026-05-01 14:28 27.51538 32.50221 22214 ft 438 kts 294°
2026-05-01 14:29 27.52836 32.47108 22454 ft 440 kts 294°
2026-05-01 14:29 27.54140 32.43983 22668 ft 441 kts 294°
2026-05-01 14:30 27.58079 32.34544 23369 ft 446 kts 294°
2026-05-01 14:30 27.59395 32.31373 23596 ft 447 kts 294°
2026-05-01 14:30 27.60712 32.28194 23819 ft 448 kts 294°
2026-05-01 14:31 27.63351 32.21826 24316 ft 447 kts 295°
2026-05-01 14:31 27.64665 32.18662 24647 ft 445 kts 295°
2026-05-01 14:31 27.65971 32.15514 24995 ft 442 kts 295°
2026-05-01 14:31 27.67269 32.12378 25326 ft 440 kts 295°
2026-05-01 14:32 27.68557 32.09256 25660 ft 438 kts 295°
2026-05-01 14:32 27.69835 32.06150 26009 ft 435 kts 295°
2026-05-01 14:32 27.71104 32.03069 26395 ft 432 kts 295°
2026-05-01 14:32 27.72369 32.00009 26762 ft 429 kts 295°
2026-05-01 14:33 27.73626 31.96969 27121 ft 426 kts 296°
2026-05-01 14:33 27.74872 31.93948 27497 ft 423 kts 296°
2026-05-01 14:33 27.76110 31.90943 27867 ft 421 kts 295°
2026-05-01 14:33 27.77343 31.87948 28184 ft 420 kts 295°
2026-05-01 14:34 27.78570 31.84963 28518 ft 418 kts 296°
2026-05-01 14:34 27.79790 31.81990 28866 ft 416 kts 296°
2026-05-01 14:34 27.81004 31.79031 29209 ft 414 kts 296°
2026-05-01 14:34 27.82209 31.76099 29621 ft 410 kts 296°
2026-05-01 14:35 27.83405 31.73184 30012 ft 407 kts 296°
2026-05-01 14:35 27.84590 31.70290 30323 ft 405 kts 296°
2026-05-01 14:35 27.85767 31.67407 30605 ft 403 kts 296°
2026-05-01 14:35 27.86937 31.64534 30872 ft 402 kts 296°
2026-05-01 14:36 27.88104 31.61671 31126 ft 400 kts 296°
2026-05-01 14:36 27.89254 31.58857 31376 ft 399 kts 296°
2026-05-01 14:36 27.90419 31.56013 31628 ft 398 kts 296°
2026-05-01 14:36 27.91580 31.53177 31876 ft 397 kts 296°
2026-05-01 14:37 27.92733 31.50346 31976 ft 396 kts 296°
2026-05-01 14:37 27.95040 31.44678 32001 ft 397 kts 296°
2026-05-01 14:38 27.97349 31.39002 32003 ft 397 kts 296°
2026-05-01 14:38 27.99650 31.33325 32004 ft 397 kts 296°
2026-05-01 14:39 28.01942 31.27644 32001 ft 397 kts 296°
2026-05-01 14:39 28.04243 31.21963 32008 ft 397 kts 296°
2026-05-01 14:40 28.06544 31.16293 32002 ft 396 kts 297°
2026-05-01 14:40 28.09401 31.10998 32001 ft 394 kts 304°
2026-05-01 14:41 28.12445 31.05836 31999 ft 394 kts 304°
2026-05-01 14:41 28.15483 31.00675 31993 ft 394 kts 304°
2026-05-01 14:42 28.18520 30.95513 31984 ft 394 kts 304°
2026-05-01 14:42 28.21556 30.90351 31986 ft 393 kts 304°
2026-05-01 14:43 28.24592 30.85198 31984 ft 393 kts 304°
2026-05-01 14:43 28.27625 30.80038 31981 ft 393 kts 304°
2026-05-01 14:44 28.30629 30.74919 32001 ft 393 kts 304°
2026-05-01 14:44 28.35158 30.67173 31980 ft 392 kts 304°
2026-05-01 14:45 28.39682 30.59429 31972 ft 392 kts 304°
2026-05-01 14:46 28.42700 30.54264 31968 ft 392 kts 304°
2026-05-01 14:46 28.47221 30.46505 31967 ft 392 kts 304°
2026-05-01 14:47 28.50242 30.41315 31958 ft 392 kts 304°
2026-05-01 14:48 28.54749 30.33553 31965 ft 392 kts 304°
2026-05-01 14:48 28.59229 30.25838 31964 ft 391 kts 303°
2026-05-01 14:49 28.65212 30.15506 31954 ft 391 kts 304°
2026-05-01 14:50 28.71178 30.05168 31956 ft 390 kts 303°
2026-05-01 14:51 28.75631 29.97422 31971 ft 389 kts 303°
2026-05-01 14:52 28.80087 29.89681 31955 ft 389 kts 303°
2026-05-01 14:53 28.84531 29.81933 31939 ft 389 kts 303°
2026-05-01 14:53 28.87489 29.76778 31948 ft 388 kts 303°
2026-05-01 14:54 28.90436 29.71633 31942 ft 387 kts 303°
2026-05-01 14:54 28.93375 29.66485 31939 ft 387 kts 303°
2026-05-01 14:55 28.96305 29.61343 31939 ft 386 kts 303°
2026-05-01 14:55 28.99240 29.56205 31930 ft 386 kts 303°
2026-05-01 14:56 29.02162 29.51063 31935 ft 386 kts 303°
2026-05-01 14:56 29.05081 29.45926 31936 ft 385 kts 303°
2026-05-01 14:57 29.07973 29.40825 31932 ft 385 kts 303°
2026-05-01 14:57 29.12503 29.33268 31926 ft 385 kts 311°
2026-05-01 14:58 29.16654 29.29358 31924 ft 388 kts 319°
2026-05-01 14:58 29.20963 29.25640 31943 ft 388 kts 319°
2026-05-01 14:59 29.25265 29.21905 31926 ft 388 kts 319°
2026-05-01 14:59 29.29562 29.18169 31919 ft 388 kts 319°
2026-05-01 15:00 29.35294 29.13182 31919 ft 389 kts 319°
2026-05-01 15:01 29.39602 29.09438 31920 ft 389 kts 319°
2026-05-01 15:01 29.43911 29.05688 31919 ft 389 kts 319°
2026-05-01 15:02 29.48212 29.01930 31919 ft 389 kts 319°
2026-05-01 15:02 29.52507 28.98161 31944 ft 388 kts 319°
2026-05-01 15:03 29.56785 28.94405 31938 ft 388 kts 318°
2026-05-01 15:03 29.61081 28.90641 31924 ft 389 kts 319°
2026-05-01 15:04 29.65386 28.86874 31916 ft 389 kts 319°
2026-05-01 15:04 29.69683 28.83091 31916 ft 389 kts 318°
2026-05-01 15:05 29.73982 28.79303 31914 ft 389 kts 318°
2026-05-01 15:05 29.78287 28.75518 31912 ft 390 kts 318°
2026-05-01 15:06 29.82593 28.71722 31938 ft 390 kts 318°
2026-05-01 15:06 29.86894 28.67922 31933 ft 389 kts 318°
2026-05-01 15:07 29.91190 28.64126 31923 ft 389 kts 318°
2026-05-01 15:07 29.95489 28.60323 31921 ft 390 kts 318°
2026-05-01 15:08 29.99798 28.56514 31916 ft 390 kts 318°
2026-05-01 15:08 30.04102 28.52695 31921 ft 390 kts 318°
2026-05-01 15:09 30.08406 28.48869 31926 ft 391 kts 318°
2026-05-01 15:09 30.12713 28.45040 31927 ft 391 kts 318°
2026-05-01 15:10 30.17021 28.41212 31930 ft 391 kts 318°
2026-05-01 15:10 30.23478 28.35449 31937 ft 391 kts 317°
2026-05-01 15:11 30.29921 28.29702 31930 ft 392 kts 317°
2026-05-01 15:12 30.34239 28.25844 31933 ft 392 kts 317°
2026-05-01 15:12 30.40718 28.20046 31936 ft 393 kts 317°
2026-05-01 15:14 30.51514 28.10357 31960 ft 392 kts 317°
2026-05-01 15:14 30.57973 28.04544 31947 ft 392 kts 317°
2026-05-01 15:15 30.66606 27.96768 31943 ft 393 kts 317°
2026-05-01 15:16 30.75246 27.88967 31946 ft 394 kts 317°
2026-05-01 15:18 30.86044 27.79205 31967 ft 393 kts 317°
2026-05-01 15:19 30.94654 27.71371 31960 ft 393 kts 317°
2026-05-01 15:19 31.01109 27.65493 31955 ft 393 kts 317°
2026-05-01 15:20 31.07568 27.59606 31982 ft 393 kts 316°
2026-05-01 15:21 31.11864 27.55674 31980 ft 391 kts 314°
2026-05-01 15:21 31.15358 27.50939 32233 ft 383 kts 301°
2026-05-01 15:21 31.16841 27.48360 32543 ft 381 kts 301°
2026-05-01 15:22 31.19803 27.43260 33095 ft 378 kts 301°
2026-05-01 15:22 31.21280 27.40729 33363 ft 376 kts 301°
2026-05-01 15:22 31.22748 27.38211 33639 ft 374 kts 301°
2026-05-01 15:23 31.24207 27.35703 33899 ft 372 kts 301°
2026-05-01 15:23 31.25656 27.33201 33970 ft 371 kts 300°
2026-05-01 15:23 31.28534 27.28215 33975 ft 369 kts 300°
2026-05-01 15:24 31.31499 27.23304 33975 ft 373 kts 307°
2026-05-01 15:24 31.35624 27.19487 33976 ft 385 kts 320°
2026-05-01 15:25 31.40155 27.16130 33956 ft 387 kts 320°
2026-05-01 15:25 31.44708 27.12743 33990 ft 388 kts 319°
2026-05-01 15:26 31.49250 27.09347 33974 ft 387 kts 319°
2026-05-01 15:26 31.53747 27.05976 33970 ft 386 kts 319°
2026-05-01 15:27 31.58262 27.02578 33971 ft 386 kts 319°
2026-05-01 15:28 31.65038 26.97485 33956 ft 385 kts 319°
2026-05-01 15:28 31.69548 26.94089 33951 ft 385 kts 319°
2026-05-01 15:29 31.76314 26.88989 33968 ft 385 kts 319°
2026-05-01 15:30 31.85311 26.82193 33950 ft 384 kts 318°
2026-05-01 15:31 31.98802 26.71974 33936 ft 385 kts 318°
2026-05-01 15:32 32.07772 26.65153 33960 ft 383 kts 318°
2026-05-01 15:34 32.21160 26.54946 33945 ft 382 kts 317°